Location: Altmerdingsen
(52.4652°N, 10.1313°E)
Time: 22:33:37
(UTC+00:00)

Daily predictions for brighter satellites

Satellite Brightness Start Highest point End
(mag) Time Altitude Azimuth Time Altitude Azimuth Time Altitude Azimuth
Meteor 1-13 Rocket 4.4 16:06:48 10° S 16:12:42 78° E 16:18:41 10° NNE
Meteor 2-10 Rocket 4.3 16:07:03 10° NNW 16:12:48 68° W 16:18:33 10° S
ACS3 Solar Sail 2.8 16:08:47 10° ESE 16:13:58 27° ENE 16:19:08 10° N
COSMOS 2428 3.2 16:08:39 10° S 16:14:00 44° ESE 16:19:23 10° NE
CZ-2D R/B 3.5 16:09:50 10° SSE 16:14:02 63° ENE 16:18:13 10° N
Cosmos 2333 Rocket 2.8 16:09:25 10° SW 16:14:58 56° NW 16:20:35 10° NNE
Cosmos 1634 Rocket 4.1 16:08:44 10° N 16:15:03 63° ENE 16:21:18 10° SSE
Cosmos 990 Rocket 4.0 16:10:32 10° NNW 16:15:46 65° ENE 16:20:58 10° SE
DNEPR-1 R/B 3.9 16:11:47 10° NW 16:16:55 57° NE 16:21:16 10° ESE
Cosmos 1174 3.6 16:14:47 10° NW 16:18:12 61° NE 16:22:20 10° SE
Cosmos 1300 4.2 16:17:09 10° NNW 16:20:17 36° W 16:23:23 10° SSW
SJ-6F 4.3 16:17:01 10° SSE 16:21:02 80° ENE 16:25:05 10° NNW
Cosmos 1933 Rocket 3.9 16:16:43 10° NNW 16:21:08 72° W 16:25:33 10° S
IGS 5A 3.8 16:19:08 10° SE 16:22:54 40° ENE 16:26:41 10° N
Cosmos 292 Rocket 4.5 16:18:42 10° NNW 16:23:24 60° WSW 16:28:02 10° S
Cosmos 1869 Rocket 3.6 16:19:23 10° N 16:23:51 81° E 16:28:17 10° SSE
Cosmos 2322 Rocket 3.1 16:19:02 10° WSW 16:24:23 44° NW 16:29:47 10° NNE
Meteor 1-16 Rocket 4.3 16:20:41 10° N 16:26:02 55° ENE 16:31:31 10° SSE
JB-3 4.3 16:23:17 10° NNE 16:27:08 60° E 16:30:53 10° S
Cosmos 2360 Rocket 3.0 16:21:53 10° SW 16:27:22 49° NW 16:32:53 10° NNE
AQUARIUS 4.2 16:23:59 10° SSE 16:28:18 55° ENE 16:32:39 10° N
BREEZE-M TANK 4.2 16:26:45 10° WSW 16:30:06 31° S 16:34:13 10° ESE
Cosmos 2344 3.8 16:24:10 10° SSW 16:31:26 50° ESE 16:38:26 10° NE
SL-16 R/B 3.7 16:29:38 10° W 16:34:34 29° NW 16:39:32 10° NNE
Cosmos 1937 Rocket 4.0 16:31:58 10° NNW 16:36:44 36° NE 16:41:28 10° ESE
Cosmos 1707 Rocket 4.4 16:33:45 10° SSE 16:37:38 31° E 16:41:33 10° NNE
Okean 3 4.2 16:34:13 10° SSE 16:37:50 31° E 16:41:32 10° NNE
ASTEX 1 3.8 16:34:10 10° S 16:38:59 69° W 16:43:52 10° N
Meteor 1-31 Rocket 3.8 16:37:09 10° ESE 16:39:56 22° ENE 16:42:45 10° NNE
Okean 2 4.2 16:38:53 10° SSE 16:42:15 27° E 16:45:39 10° NNE
Cosmos 1943 Rocket 2.2 16:38:28 10° NNW 16:44:10 77° ENE 16:49:48 10° SE
ARIANE 5 R/B 4.2 16:41:56 10° SSW 16:46:48 39° W 16:51:41 10° NNW
CZ-2C R/B 4.0 16:48:33 15° E 16:49:33 16° ENE 16:51:44 10° NNE
RESURS DK-1 2.2 16:47:08 10° NNW 16:51:12 77° ENE 16:55:13 10° SE
Cosmos 2237 Rocket 2.8 16:46:02 10° S 16:51:13 37° ESE 16:56:08 11° NE
Tsikada Rocket 4.2 16:49:15 10° SSW 16:55:23 78° WNW 17:01:36 10° N
Cosmos 1862 Rocket 4.0 16:51:23 10° SSE 16:55:28 40° E 16:59:37 10° NNE
BlueWalker 3 1.7 16:53:20 10° W 16:57:00 84° N 16:59:51 16° E
USA 81 4.4 16:52:11 10° SSW 16:57:26 69° W 17:02:43 10° N
Cosmos 1455 3.0 16:54:21 10° NNW 16:57:27 45° W 17:00:31 10° S
Cosmos 2278 Rocket 2.5 16:52:35 10° NW 16:58:15 72° WSW 17:03:52 10° SSE
BREEZE-M DEB (TANK) 2.7 16:56:23 10° SW 16:58:26 27° SSE 17:00:09 16° ESE
COSMO-SKYMED 1 3.2 16:56:08 10° NNE 17:00:08 34° E 17:04:06 10° SSE
NOAA 6 4.3 16:57:02 10° SE 17:01:53 45° ENE 17:06:46 10° N
SJ-7 4.4 16:58:28 10° S 17:02:15 76° WSW 17:06:06 10° NNW
Cosmos 2219 Rocket 3.0 16:57:02 10° SW 17:02:25 47° NW 17:07:52 10° NNE
ARGOS Delta rocket 4.0 16:58:17 10° S 17:02:55 72° W 17:07:23 10° NNW
Cosmos 2180 Rocket 4.4 16:57:44 10° N 17:04:04 71° ENE 17:10:17 10° SSE
ISS -2.3 17:01:42 10° SSW 17:04:31 25° SSE 17:06:06 18° ESE
CZ-4B R/B 4.1 17:01:29 10° SE 17:04:48 36° ENE 17:08:04 10° N
CZ-4C R/B 2.9 17:01:45 10° S 17:05:31 27° ESE 17:08:01 19° ENE
Nadezhda 4 Rocket 4.3 17:03:34 10° SSE 17:09:15 42° E 17:15:00 10° NNE
Meteor 1-21 4.3 17:04:16 10° SSW 17:09:53 86° WNW 17:15:35 10° NNE
USA 306 1.5 17:09:55 10° WNW 17:12:05 64° N 17:12:55 37° ENE
Cosmos 1763 Rocket 3.4 17:07:55 10° SSW 17:13:07 90° ESE 17:18:18 10° NNE
Cosmos 1733 Rocket 3.1 17:09:13 10° NNW 17:13:39 83° WSW 17:18:03 10° S
YAOGAN 1 2.8 17:09:48 10° SE 17:13:51 44° ENE 17:17:56 10° N
ATLAS 5 CENTAUR R/B 3.1 17:13:51 10° SE 17:14:21 11° SE 17:14:21 11° SE
Cosmos 540 Rocket 3.4 17:13:42 10° SSW 17:18:49 81° ESE 17:23:47 11° NNE
Landsat 7 3.7 17:15:18 10° SSE 17:19:58 75° ENE 17:24:42 10° NNW
USA 215 3.4 17:16:12 19° ENE 17:21:08 70° NNW 17:27:38 10° W
SPOT 1/Viking Rocket 3.9 17:16:55 10° SE 17:21:43 41° ENE 17:26:31 10° N
Cosmos 2322 4.2 17:16:04 10° SW 17:21:45 61° NW 17:27:26 10° NNE
Cosmos 468 Rocket 3.9 17:17:35 10° SSW 17:22:44 70° ESE 17:27:14 14° NNE
Cosmos 1703 Rocket 4.4 17:20:32 10° SSE 17:24:21 28° E 17:25:04 27° ENE
Cosmos 2279 Rocket 4.4 17:19:29 10° NNW 17:25:38 65° W 17:31:44 10° S
Cosmos 2228 Rocket 3.1 17:21:50 10° S 17:26:22 85° ESE 17:30:59 10° NNE
Cosmos 1656 Rocket 3.8 17:23:27 10° NNW 17:28:48 51° NE 17:33:23 14° SE
Cosmos 1898 Rocket 3.6 17:23:31 10° NNW 17:28:50 79° WSW 17:34:07 10° SSE
Resurs 1-3 3.9 17:25:27 10° SE 17:29:28 40° ENE 17:33:32 10° N
Cosmos 1980 Rocket 4.4 17:27:42 10° NNW 17:29:55 12° N 17:32:08 10° NNE
Cosmos 841 Rocket 3.8 17:27:16 10° S 17:32:14 45° ESE 17:35:00 24° NE
Cosmos 1703 4.0 17:34:15 10° SSE 17:36:27 29° SE 17:36:27 29° SE
Okean 1-7 2.9 17:35:48 10° S 17:40:02 66° E 17:43:22 16° NNE
SL-16 R/B 3.0 17:35:46 10° SSE 17:40:32 29° ESE 17:40:55 29° E
Cosmos 1980 3.6 17:35:10 10° SSW 17:40:49 83° ESE 17:44:57 19° NNE
Cosmos 1953 3.7 17:38:54 10° NNW 17:42:23 37° W 17:45:49 10° SSW
Cosmos 1300 Rocket 4.2 17:39:35 10° N 17:42:41 33° NE 17:42:41 33° NE
NOSS 8 (E) 4.4 17:40:07 10° SW 17:43:57 74° NW 17:44:41 50° NNE
CZ-4 R/B 3.8 17:48:42 11° N 17:48:42 11° N 17:48:48 10° N
SKYMED 2 3.5 17:43:57 10° NNE 17:48:20 87° WNW 17:52:40 10° SSW
ADEOS 3.9 17:48:47 35° E 17:49:58 40° ENE 17:54:49 10° N
NOSS 0 Rocket 4.1 17:44:43 10° SW 17:50:51 73° NW 17:55:40 18° NNE
Cosmos 1818 3.6 17:46:29 10° NW 17:52:00 86° SW 17:56:19 17° SE
ATLAS 2AS CENTAUR R/B 2.6 17:46:48 10° NW 17:53:42 88° NE 17:59:05 17° SE
Cosmos 2369 Rocket 2.2 17:49:25 10° NNW 17:54:56 54° NE 17:56:54 36° ESE
Resurs 01 Rocket 3.3 17:57:26 19° NNE 17:57:26 19° NNE 17:58:59 10° N
Cosmos 1092 Rocket 4.1 17:49:15 10° SSE 17:55:07 48° E 18:01:04 10° NNE
NOSS 8 (H) 4.4 17:52:01 10° SW 17:55:40 66° NW 17:55:55 63° N
ACS3 Solar Sail 2.0 17:50:32 10° S 17:56:56 79° WSW 18:03:23 10° NNW
COSMOS 2428 3.7 17:52:53 10° WSW 17:58:18 43° NW 18:02:53 14° NNE
Cosmos 2333 Rocket 4.3 17:56:34 10° WNW 18:00:32 19° NNW 18:04:33 10° NNE
Cosmos 1908 Rocket 3.7 18:02:21 10° NNW 18:06:43 73° W 18:11:00 10° S
BREEZE-M DEB (TANK) 3.1 17:59:45 10° W 18:06:53 62° S 18:07:22 55° SE
Cosmos 2322 Rocket 4.4 18:06:29 10° WNW 18:09:57 16° NNW 18:13:24 10° NNE
EO 1 Delta rocket 4.2 18:07:31 10° N 18:12:17 64° WNW 18:16:52 10° SSW
PAYLOAD B 4.5 18:12:31 46° ENE 18:12:31 46° ENE 18:17:45 10° N
Meteor 2-12 Rocket 4.3 18:06:23 10° S 18:12:26 75° E 18:18:34 10° NNE
Cosmos 2360 Rocket 4.4 18:09:04 10° WNW 18:12:47 17° NNW 18:16:23 10° NNE
CZ-4B DEB 4.2 18:12:00 47° ESE 18:13:10 56° ENE 18:18:33 10° N
Meteor 1-31 Rocket 4.0 18:09:57 10° SSW 18:13:17 37° W 18:16:39 10° NNW
CZ-4B R/B 4.3 18:18:57 34° NNE 18:18:57 34° NNE 18:21:59 10° N
Cosmos 2297 3.6 18:12:15 10° NNW 18:18:03 82° ENE 18:20:17 39° SE
Cosmos 1627 Rocket 4.4 18:11:48 10° S 18:18:08 70° E 18:24:30 10° NNE
Cosmos 2263 4.2 18:13:18 10° NNW 18:18:57 61° NE 18:19:34 57° E
SL-16 R/B 4.5 18:17:58 10° NW 18:20:39 13° NNW 18:23:11 10° NNE
CZ-2C R/B 3.4 18:22:18 46° W 18:22:18 46° W 18:25:22 10° NNW
Cosmos 2026 Rocket 3.9 18:17:28 10° S 18:23:50 78° E 18:30:13 10° NNE
Cosmos 1932 4.4 18:19:21 10° SSW 18:25:23 57° SE 18:25:50 56° ESE
BREEZE-M DEB (TANK) 3.3 18:17:12 10° WSW 18:28:22 58° S 18:28:56 54° SE
BlueWalker 3 3.2 18:31:12 10° W 18:33:53 36° WSW 18:33:53 36° WSW
Cosmos 2237 Rocket 2.9 18:29:37 10° SW 18:35:09 50° NW 18:37:58 27° N
COSMO-SKYMED 1 4.2 18:32:35 11° N 18:36:16 33° WNW 18:40:10 10° SW
ISS -1.4 18:37:36 10° WSW 18:39:01 23° WSW 18:39:01 23° WSW
Cosmos 1782 Rocket 4.2 18:38:12 10° NNW 18:41:41 50° NW 18:41:41 50° NW
Cosmos 2344 3.9 18:38:35 10° WSW 18:45:44 55° NNW 18:48:48 34° NNE
Cosmos 2219 Rocket 4.4 18:44:14 10° WNW 18:47:49 17° NNW 18:50:23 13° N
CZ-4C R/B 2.2 18:48:33 10° WSW 18:53:05 66° NW 18:53:05 66° NW
ATLAS 5 CENTAUR R/B 4.0 18:54:30 10° SW 18:54:38 11° SW 18:54:38 11° SW
CZ-4B R/B 4.3 19:00:45 33° N 19:00:45 33° N 19:03:40 10° NNW
Meteor 1-24 Rocket 3.9 18:52:56 10° SSW 18:58:08 70° SSW 18:58:08 70° SSW
USA 215 3.3 19:03:33 61° NNE 19:03:52 62° N 19:10:18 10° WNW
Meteor 2-5 Rocket 4.5 19:03:45 10° SSW 19:07:38 45° SSW 19:07:38 45° SSW
Cosmos 1980 Rocket 4.5 19:13:15 10° NNW 19:14:42 13° N 19:14:42 13° N
Cosmos 1553 Rocket 4.4 19:17:21 10° NNW 19:23:23 58° W 19:23:51 57° WSW
SL-16 R/B 3.0 19:18:39 10° SW 19:22:50 47° WSW 19:22:50 47° WSW
Resurs 01 Rocket 4.3 19:34:51 14° NNW 19:34:51 14° NNW 19:35:30 10° NNW
Cosmos 2369 Rocket 3.6 19:33:46 10° NW 19:38:44 33° WSW 19:38:45 33° WSW
ACS3 Solar Sail 4.4 19:37:28 10° WSW 19:41:31 17° W 19:45:36 10° NW
ATLAS 2AS CENTAUR R/B 4.4 19:38:25 10° WNW 19:43:50 26° WSW 19:46:35 20° SSW
